Auburn, AL

1:50 AM CDT on July 29, 2016 (GMT -0500)
Auburn-opelika-pitts

Weather History for KAUO - November, 2014

Change the Weather History Date:

Monday, November 10, 2014

  Actual Average Record
Temperature  
Mean Temperature 55 °F -  
Max Temperature 70 °F - 84 °F (1986)
Min Temperature 39 °F - 20 °F (1967)
Degree Days  
Heating Degree Days 10    
Month to date heating degree days 118  
Since 1 July heating degree days 213  
Growing Degree Days 4 (Base 50)    
Moisture  
Dew Point 38 °F    
Average Humidity 59    
Maximum Humidity 87    
Minimum Humidity 33    
Precipitation  
Precipitation 0.00 in - 1.69 in (1990)
Month to date precipitation 0.00  
Year to date precipitation 34.31  
Sea Level Pressure  
Sea Level Pressure 30.05 in    
Wind  
Wind Speed 4 mph (ESE)    
Max Wind Speed 8 mph    
Max Gust Speed -    
Visibility 10 miles    
Events      
T = Trace of Precipitation, MM = Missing Value Source: NWS Daily Summary

Daily Weather History Graph

Daily Weather History Graph

Search for Another Location

Airport or City:

Trip Planner

Search our weather history database for the weather conditions in past years. The results will help you decide how hot, cold, wet, or windy it might be!

Date:

Astronomy

Nov. 10, 2014 Rise Set
Actual Time 6:07 AM CST 4:43 PM CST
Civil Twilight 5:41 AM CST 5:09 PM CST
Nautical Twilight 5:11 AM CST 5:39 PM CST
Astronomical Twilight 4:42 AM CST 6:08 PM CST
Moon 8:12 PM CST (11/10) 9:26 AM CST (11/10)
Length of Visible Light 11h 28m
Length of Day
10h 36m
Waning Gibbous, 84% of the Moon is Illuminated
Nov 10
Waning Gibbous
Nov 14
Last Quarter
Nov 22
New
Nov 29
First Quarter
Dec 6
Full

Hourly Weather History & Observations

Time (CST) Temp. Windchill Dew Point Humidity Pressure Visibility Wind Dir Wind Speed Gust Speed Precip Events Conditions
12:15 AM 44.6 °F 40.7 °F 37.4 °F 76% 30.03 in 10.0 mi NNE 6.9 mph - N/A   Clear
12:35 AM 44.6 °F 40.7 °F 35.6 °F 71% 30.03 in 10.0 mi NNE 6.9 mph - N/A   Clear
12:55 AM 42.8 °F 39.3 °F 35.6 °F 76% 30.03 in 10.0 mi NNE 5.8 mph - N/A   Clear
1:15 AM 42.8 °F 39.3 °F 37.4 °F 81% 30.02 in 10.0 mi NNE 5.8 mph - N/A   Clear
1:35 AM 42.8 °F 39.3 °F 37.4 °F 81% 30.02 in 10.0 mi NE 5.8 mph - N/A   Clear
1:55 AM 42.8 °F 38.6 °F 35.6 °F 76% 30.02 in 10.0 mi NE 6.9 mph - N/A   Clear
2:15 AM 44.6 °F 42.2 °F 35.6 °F 71% 30.02 in 10.0 mi NE 4.6 mph - N/A   Clear
2:35 AM 44.6 °F 41.4 °F 35.6 °F 71% 30.02 in 10.0 mi NE 5.8 mph - N/A   Clear
2:55 AM 44.6 °F 43.1 °F 37.4 °F 76% 30.02 in 10.0 mi ENE 3.5 mph - N/A   Clear
3:15 AM 46.4 °F 44.3 °F 37.4 °F 71% 30.03 in 10.0 mi NE 4.6 mph - N/A   Clear
3:35 AM 44.6 °F 41.4 °F 37.4 °F 76% 30.03 in 10.0 mi NE 5.8 mph - N/A   Clear
3:55 AM 44.6 °F 42.2 °F 37.4 °F 76% 30.04 in 10.0 mi ENE 4.6 mph - N/A   Clear
4:15 AM 42.8 °F 40.1 °F 37.4 °F 81% 30.04 in 10.0 mi ENE 4.6 mph - N/A   Clear
4:35 AM 44.6 °F 43.1 °F 37.4 °F 76% 30.05 in 10.0 mi ENE 3.5 mph - N/A   Clear
4:55 AM 42.8 °F 40.1 °F 35.6 °F 76% 30.05 in 10.0 mi ENE 4.6 mph - N/A   Clear
5:15 AM 42.8 °F 40.1 °F 37.4 °F 81% 30.05 in 10.0 mi ENE 4.6 mph - N/A   Clear
5:35 AM 42.8 °F 40.1 °F 35.6 °F 76% 30.05 in 10.0 mi NE 4.6 mph - N/A   Clear
5:55 AM 41.0 °F 39.0 °F 35.6 °F 81% 30.05 in 10.0 mi ENE 3.5 mph - N/A   Clear
6:15 AM 39.2 °F 35.9 °F 35.6 °F 87% 30.05 in 10.0 mi East 4.6 mph - N/A   Clear
6:35 AM 39.2 °F 35.9 °F 35.6 °F 87% 30.06 in 10.0 mi East 4.6 mph - N/A   Clear
6:55 AM 44.6 °F 43.1 °F 37.4 °F 76% 30.07 in 10.0 mi ENE 3.5 mph - N/A   Clear
7:15 AM 46.4 °F 44.3 °F 39.2 °F 76% 30.08 in 10.0 mi ENE 4.6 mph - N/A   Clear
7:35 AM 48.2 °F - 41.0 °F 76% 30.09 in 10.0 mi NE 3.5 mph - N/A   Clear
7:55 AM 51.8 °F - 41.0 °F 67% 30.09 in 10.0 mi ENE 3.5 mph - N/A   Clear
8:15 AM 55.4 °F - 42.8 °F 63% 30.10 in 10.0 mi East 3.5 mph - N/A   Clear
8:35 AM 55.4 °F - 39.2 °F 54% 30.10 in 10.0 mi East 5.8 mph - N/A   Clear
8:55 AM 57.2 °F - 41.0 °F 55% 30.10 in 10.0 mi East 3.5 mph - N/A   Clear
9:15 AM 60.8 °F - 42.8 °F 52% 30.10 in 10.0 mi ESE 3.5 mph - N/A   Clear
9:35 AM 60.8 °F - 41.0 °F 48% 30.10 in 10.0 mi SSE 4.6 mph - N/A   Clear
9:55 AM 62.6 °F - 41.0 °F 45% 30.10 in 10.0 mi SSE 4.6 mph - N/A   Clear
10:15 AM 62.6 °F - 39.2 °F 42% 30.10 in 10.0 mi Calm Calm - N/A   Clear
10:35 AM 62.6 °F - 39.2 °F 42% 30.09 in 10.0 mi ESE 4.6 mph - N/A   Clear
10:55 AM 62.6 °F - 39.2 °F 42% 30.09 in 10.0 mi Calm Calm - N/A   Clear
11:15 AM 64.4 °F - 39.2 °F 40% 30.09 in 10.0 mi SSW 5.8 mph - N/A   Clear
11:35 AM 64.4 °F - 39.2 °F 40% 30.08 in 10.0 mi Calm Calm - N/A   Clear
11:55 AM 66.2 °F - 39.2 °F 37% 30.07 in 10.0 mi South 4.6 mph - N/A   Clear
12:15 PM 66.2 °F - 37.4 °F 35% 30.06 in 10.0 mi Calm Calm - N/A   Clear
12:35 PM 66.2 °F - 37.4 °F 35% 30.06 in 10.0 mi South 5.8 mph - N/A   Clear
12:55 PM 68.0 °F - 37.4 °F 33% 30.05 in 10.0 mi SW 4.6 mph - N/A   Clear
1:15 PM 68.0 °F - 39.2 °F 35% 30.05 in 10.0 mi WSW 4.6 mph - N/A   Clear
1:35 PM 68.0 °F - 39.2 °F 35% 30.04 in 10.0 mi SSE 4.6 mph - N/A   Clear
1:55 PM 68.0 °F - 39.2 °F 35% 30.04 in 10.0 mi SE 6.9 mph - N/A   Clear
2:15 PM 68.0 °F - 37.4 °F 33% 30.04 in 10.0 mi SSE 6.9 mph - N/A   Clear
2:35 PM 68.0 °F - 37.4 °F 33% 30.04 in 10.0 mi South 4.6 mph - N/A   Clear
2:55 PM 68.0 °F - 37.4 °F 33% 30.03 in 10.0 mi ESE 8.1 mph - N/A   Clear
3:15 PM 68.0 °F - 37.4 °F 33% 30.03 in 10.0 mi South 4.6 mph - N/A   Clear
3:35 PM 66.2 °F - 37.4 °F 35% 30.03 in 10.0 mi SE 8.1 mph - N/A   Clear
3:55 PM 66.2 °F - 37.4 °F 35% 30.03 in 10.0 mi SE 5.8 mph - N/A   Clear
4:15 PM 66.2 °F - 39.2 °F 37% 30.03 in 10.0 mi SSE 5.8 mph - N/A   Clear
4:35 PM 64.4 °F - 39.2 °F 40% 30.03 in 10.0 mi SSE 4.6 mph - N/A   Clear
4:55 PM 62.6 °F - 39.2 °F 42% 30.03 in 10.0 mi SE 3.5 mph - N/A   Clear
5:15 PM 59.0 °F - 39.2 °F 48% 30.03 in 10.0 mi Calm Calm - N/A   Clear
5:35 PM 57.2 °F - 39.2 °F 51% 30.03 in 10.0 mi Calm Calm - N/A   Clear
5:55 PM 55.4 °F - 39.2 °F 54% 30.03 in 10.0 mi Calm Calm - N/A   Clear
6:15 PM 53.6 °F - 39.2 °F 58% 30.03 in 10.0 mi ESE 3.5 mph - N/A   Clear
6:35 PM 55.4 °F - 39.2 °F 54% 30.03 in 10.0 mi SE 4.6 mph - N/A   Clear
6:55 PM 53.6 °F - 39.2 °F 58% 30.04 in 10.0 mi Calm Calm - N/A   Clear
7:15 PM 53.6 °F - 39.2 °F 58% 30.04 in 10.0 mi SE 3.5 mph - N/A   Clear
7:35 PM 55.4 °F - 39.2 °F 54% 30.04 in 10.0 mi SE 4.6 mph - N/A   Clear
7:55 PM 53.6 °F - 37.4 °F 54% 30.03 in 10.0 mi SE 3.5 mph - N/A   Clear
8:15 PM 53.6 °F - 37.4 °F 54% 30.03 in 10.0 mi ESE 3.5 mph - N/A   Clear
8:35 PM 51.8 °F - 39.2 °F 62% 30.03 in 10.0 mi Calm Calm - N/A   Clear
8:55 PM 51.8 °F - 37.4 °F 58% 30.03 in 10.0 mi Calm Calm - N/A   Clear
9:15 PM 51.8 °F - 37.4 °F 58% 30.03 in 10.0 mi Calm Calm - N/A   Clear
9:35 PM 48.2 °F - 37.4 °F 66% 30.03 in 10.0 mi Calm Calm - N/A   Clear
9:55 PM 48.2 °F - 37.4 °F 66% 30.03 in 10.0 mi Calm Calm - N/A   Clear
10:15 PM 48.2 °F - 37.4 °F 66% 30.03 in 10.0 mi ESE 4.6 mph - N/A   Clear
10:35 PM 48.2 °F - 37.4 °F 66% 30.03 in 10.0 mi Calm Calm - N/A   Clear
10:55 PM 44.6 °F 43.1 °F 37.4 °F 76% 30.02 in 10.0 mi ESE 3.5 mph - N/A   Clear
11:15 PM 44.6 °F - 37.4 °F 76% 30.02 in 10.0 mi Calm Calm - N/A   Clear
11:35 PM 44.6 °F - 37.4 °F 76% 30.02 in 10.0 mi Calm Calm - N/A   Clear
11:55 PM 44.6 °F - 37.4 °F 76% 30.02 in 10.0 mi Calm Calm - N/A   Clear